KC0VVH Weather Reports


time (UTC)temp
C
wind
direction
speed
KPH
gust
KPH
rain 1hr
cm
rain 24hr
cm
rain mn
cm
humidity
%
barometer
mb
20260509141803 15 0 0.0 0.0 0.00 0.00 0.00 36 1017.9
20260509140903 15 0 0.0 0.0 0.00 0.00 0.00 35 1017.9
20260509140015 14 0 0.0 0.0 0.00 0.00 0.00 37 1017.9
20260509135436 14 0 0.0 0.0 0.00 0.00 0.00 36 1017.9
20260509134515 14 0 0.0 0.0 0.00 0.00 0.00 39 1017.9
20260509133615 15 0 0.0 0.0 0.00 0.00 0.00 39 1017.9
20260509132715 15 0 0.0 0.0 0.00 0.00 0.00 38 1017.9
20260509131815 15 27 0.0 4.8 0.00 0.00 0.00 39 1017.9
20260509130915 15 27 1.6 4.8 0.00 0.00 0.00 35 1017.9
20260509130003 13 0 0.0 0.0 0.00 0.00 0.00 34 1017.9
20260509125415 13 0 0.0 1.6 0.00 0.00 0.00 35 1017.9
20260509124536 13 0 0.0 1.6 0.00 0.00 0.00 36 1017.9
20260509123615 12 0 0.0 0.0 0.00 0.00 0.00 37 1017.9
20260509122703 12 0 0.0 0.0 0.00 0.00 0.00 37 1017.9
20260509121836 12 27 0.0 6.4 0.00 0.00 0.00 36 1017.9
20260509120915 12 27 0.0 6.4 0.00 0.00 0.00 37 1017.9
20260509120003 12 27 0.0 4.8 0.00 0.00 0.00 38 1017.9
20260509115415 12 21 0.0 9.7 0.00 0.00 0.00 38 1017.9
20260509114515 12 21 3.2 12.9 0.00 0.00 0.00 38 1017.9
20260509113615 13 25 0.0 8.0 0.00 0.00 0.00 32 1017.9
20260509112715 14 0 0.0 0.0 0.00 0.00 0.00 30 1017.9
20260509111815 15 244 0.0 3.2 0.00 0.00 0.00 29 1017.9
20260509110903 15 244 1.6 11.3 0.00 0.00 0.00 29 1017.9
20260509110015 14 245 3.2 8.0 0.00 0.00 0.00 30 1017.9
20260509105436 13 246 3.2 8.0 0.00 0.00 0.00 31 1017.9
20260509104515 13 0 0.0 0.0 0.00 0.00 0.00 34 1017.9
20260509103615 13 0 0.0 0.0 0.00 0.00 0.00 33 1017.9
20260509102736 14 0 0.0 0.0 0.00 0.00 0.00 31 1017.9
20260509101815 15 0 0.0 0.0 0.00 0.00 0.00 29 1017.9
20260509100915 16 0 0.0 0.0 0.00 0.00 0.00 28 1017.9
20260509100015 17 0 0.0 0.0 0.00 0.00 0.00 26 1017.9
20260509095436 17 246 0.0 6.4 0.00 0.00 0.00 25 1017.9
20260509094515 18 246 1.6 8.0 0.00 0.00 0.00 21 1017.9
20260509093603 18 246 1.6 8.0 0.00 0.00 0.00 21 1017.9
20260509092715 18 246 4.8 11.3 0.00 0.00 0.00 21 1017.9
20260509091815 17 247 3.2 11.3 0.00 0.00 0.00 22 1017.9
20260509090915 16 250 0.0 6.4 0.00 0.00 0.00 24 1017.9
20260509090015 17 0 0.0 0.0 0.00 0.00 0.00 26 1017.9
20260509085403 17 250 0.0 1.6 0.00 0.00 0.00 25 1017.9
20260509084515 18 250 0.0 6.4 0.00 0.00 0.00 22 1017.9
20260509083615 19 250 3.2 8.0 0.00 0.00 0.00 20 1017.9
20260509082715 19 250 1.6 8.0 0.00 0.00 0.00 20 1017.9
20260509081815 20 250 1.6 6.4 0.00 0.00 0.00 19 1017.9
20260509080915 20 250 1.6 11.3 0.00 0.00 0.00 19 1017.9
20260509080004 20 251 1.6 12.9 0.00 0.00 0.00 19 1017.9
20260509075415 20 252 1.6 12.9 0.00 0.00 0.00 19 1017.9
20260509074515 20 256 1.6 6.4 0.00 0.00 0.00 19 1017.9
20260509073603 20 257 1.6 12.9 0.00 0.00 0.00 19 1017.9
20260509072715 20 245 1.6 12.9 0.00 0.00 0.00 19 1017.9
20260509071803 20 253 1.6 12.9 0.00 0.00 0.00 19 1017.9
20260509070903 20 248 1.6 11.3 0.00 0.00 0.00 19 1017.9
20260509070015 20 239 3.2 11.3 0.00 0.00 0.00 20 1017.9
20260509065403 20 237 1.6 6.4 0.00 0.00 0.00 20 1017.9
20260509064536 20 231 1.6 9.7 0.00 0.00 0.00 20 1017.9
20260509063603 21 288 1.6 6.4 0.00 0.00 0.00 19 1017.9
20260509062703 21 281 1.6 12.9 0.00 0.00 0.00 18 1017.9
20260509061815 21 300 1.6 9.7 0.00 0.00 0.00 18 1017.9
20260509060903 21 303 3.2 12.9 0.00 0.00 0.00 18 1017.9
20260509060015 21 301 1.6 11.3 0.00 0.00 0.00 18 1017.9
20260509055403 21 290 3.2 20.9 0.00 0.00 0.00 18 1017.9
20260509054515 21 314 1.6 9.7 0.00 0.00 0.00 19 1017.9
20260509053615 21 300 1.6 8.0 0.00 0.00 0.00 19 1017.9
20260509052715 21 294 1.6 6.4 0.00 0.00 0.00 19 1017.9
20260509051815 21 325 1.6 11.3 0.00 0.00 0.00 19 1017.9
20260509050915 22 329 3.2 12.9 0.00 0.00 0.00 18 1017.9
20260509050003 22 320 1.6 12.9 0.00 0.00 0.00 17 1017.9
20260509045403 22 310 1.6 12.9 0.00 0.00 0.00 17 1017.9
20260509044515 22 305 1.6 14.5 0.00 0.00 0.00 17 1017.9
20260509043615 23 263 1.6 9.7 0.00 0.00 0.00 17 1017.9
20260509042715 23 296 3.2 16.1 0.00 0.00 0.00 17 1017.9
20260509041815 22 296 3.2 16.1 0.00 0.00 0.00 17 1017.9
20260509040903 23 353 1.6 12.9 0.00 0.00 0.00 18 1017.9
20260509040036 23 262 3.2 17.7 0.00 0.00 0.00 15 1017.9
20260509035415 23 247 4.8 17.7 0.00 0.00 0.00 14 1017.9
20260509034515 24 268 1.6 16.1 0.00 0.00 0.00 14 1017.9
20260509033603 24 247 1.6 24.1 0.00 0.00 0.00 14 1017.9
20260509032715 24 240 3.2 24.1 0.00 0.00 0.00 14 1017.9
20260509031815 24 241 1.6 9.7 0.00 0.00 0.00 14 1017.9
20260509030903 24 232 1.6 12.9 0.00 0.00 0.00 14 1017.9
20260509030015 25 231 4.8 25.7 0.00 0.00 0.00 14 1017.9
20260509025403 24 224 1.6 14.5 0.00 0.00 0.00 14 1017.9
20260509024516 24 216 1.6 9.7 0.00 0.00 0.00 14 1017.9
20260509023636 25 222 1.6 9.7 0.00 0.00 0.00 14 1017.9
20260509022715 25 218 3.2 16.1 0.00 0.00 0.00 14 1017.9
20260509021803 25 222 4.8 17.7 0.00 0.00 0.00 14 1017.9
20260509020915 25 228 3.2 16.1 0.00 0.00 0.00 13 1017.9
20260509020015 25 238 1.6 12.9 0.00 0.00 0.00 13 1017.9
20260509015415 25 0 0.0 0.0 0.00 0.00 0.00 14 1017.9
20260509014515 25 225 1.6 8.0 0.00 0.00 0.00 13 1017.9
20260509013615 26 197 1.6 11.3 0.00 0.00 0.00 13 1017.9
20260509012703 26 0 0.0 0.0 0.00 0.00 0.00 13 1017.9
20260509011815 26 0 0.0 1.6 0.00 0.00 0.00 13 1017.9
20260509010903 26 0 0.0 0.0 0.00 0.00 0.00 12 1017.9
20260509010024 26 296 1.6 14.5 0.00 0.00 0.00 12 1017.9
20260509005403 26 294 1.6 14.5 0.00 0.00 0.00 12 1017.9
20260509004503 27 266 1.6 11.3 0.00 0.00 0.00 13 1017.9
20260509003615 27 227 3.2 17.7 0.00 0.00 0.00 13 1017.9
20260509002715 27 227 0.0 12.9 0.00 0.00 0.00 12 1017.9
20260509001815 27 224 4.8 35.4 0.00 0.00 0.00 13 1017.9
20260509000936 27 247 3.2 19.3 0.00 0.00 0.00 12 1017.9
20260509000015 28 359 1.6 12.9 0.00 0.00 0.00 11 1017.9
20260508235415 28 47 0.0 6.4 0.00 0.00 0.00 12 1017.9
20260508234515 28 35 1.6 8.0 0.00 0.00 0.00 12 1017.9
20260508233615 28 15 4.8 17.7 0.00 0.00 0.00 11 1017.9
20260508232715 28 11 1.6 14.5 0.00 0.00 0.00 12 1017.9
20260508231836 29 14 3.2 14.5 0.00 0.00 0.00 11 1017.9
20260508230915 29 16 4.8 16.1 0.00 0.00 0.00 11 1017.9
20260508230015 29 326 1.6 9.7 0.00 0.00 0.00 11 1017.9
20260508225415 29 8 1.6 9.7 0.00 0.00 0.00 10 1017.9
20260508224536 29 348 1.6 9.7 0.00 0.00 0.00 11 1017.9
20260508223615 28 354 1.6 12.9 0.00 0.00 0.00 11 1017.9
20260508222703 28 305 3.2 17.7 0.00 0.00 0.00 11 1017.9
20260508221815 28 271 1.6 12.9 0.00 0.00 0.00 11 1017.9
20260508220915 28 326 3.2 19.3 0.00 0.00 0.00 11 1017.9
20260508220015 28 346 8.0 22.5 0.00 0.00 0.00 11 1017.9
20260508215424 27 357 9.7 22.5 0.00 0.00 0.00 12 1017.9
20260508214515 26 354 4.8 20.9 0.00 0.00 0.00 13 1017.9
20260508213615 26 346 1.6 11.3 0.00 0.00 0.00 13 1017.9
20260508212715 25 279 1.6 16.1 0.00 0.00 0.00 13 1017.9
20260508211815 25 309 3.2 16.1 0.00 0.00 0.00 13 1017.9
20260508210915 26 331 4.8 19.3 0.00 0.00 0.00 13 1017.9
20260508210015 26 287 3.2 14.5 0.00 0.00 0.00 13 1017.9
20260508205415 27 308 4.8 14.5 0.00 0.00 0.00 13 1017.9
20260508204503 27 360 6.4 17.7 0.00 0.00 0.00 12 1017.9
20260508203636 28 10 6.4 22.5 0.00 0.00 0.00 12 1017.9
20260508202715 27 333 4.8 22.5 0.00 0.00 0.00 12 1017.9
20260508201815 27 24 8.0 20.9 0.00 0.00 0.00 15 1017.9
20260508200936 27 35 8.0 20.9 0.00 0.00 0.00 14 1017.9
20260508200036 27 20 8.0 19.3 0.00 0.00 0.00 15 1017.9
20260508195403 27 11 8.0 20.9 0.00 0.00 0.00 15 1017.9
20260508194515 26 8 6.4 22.5 0.00 0.00 0.00 15 1017.9
20260508193615 26 54 6.4 16.1 0.00 0.00 0.00 17 1017.9
20260508192715 27 19 6.4 17.7 0.00 0.00 0.00 16 1017.9
20260508191815 26 9 6.4 19.3 0.00 0.00 0.00 17 1017.9
20260508190936 26 32 8.0 19.3 0.00 0.00 0.00 18 1017.9
20260508190015 25 18 3.2 12.9 0.00 0.00 0.00 20 1017.9
20260508185415 25 12 4.8 12.9 0.00 0.00 0.00 20 1017.9
20260508184515 25 51 4.8 9.7 0.00 0.00 0.00 22 1017.9
20260508183615 24 54 4.8 9.7 0.00 0.00 0.00 23 1017.9
20260508182736 23 39 3.2 9.7 0.00 0.00 0.00 23 1017.9
20260508181815 24 13 4.8 14.5 0.00 0.00 0.00 21 1017.9
20260508180915 25 31 6.4 14.5 0.00 0.00 0.00 22 1017.9
20260508180036 24 18 4.8 12.9 0.00 0.00 0.00 22 1017.9
20260508175415 23 29 4.8 12.9 0.00 0.00 0.00 22 1017.9
20260508174515 23 37 3.2 12.9 0.00 0.00 0.00 21 1017.9
20260508173615 23 39 3.2 12.9 0.00 0.00 0.00 21 1017.9
20260508172715 23 61 3.2 12.9 0.00 0.00 0.00 22 1017.9
20260508171815 23 61 4.8 14.5 0.00 0.00 0.00 22 1017.9
20260508170915 22 63 4.8 14.5 0.00 0.00 0.00 22 1017.9
20260508170015 22 66 3.2 12.9 0.00 0.00 0.00 21 1017.9
20260508165415 22 69 1.6 12.9 0.00 0.00 0.00 24 1017.9
20260508164515 21 71 3.2 9.7 0.00 0.00 0.00 23 1017.9
20260508163603 21 71 1.6 9.7 0.00 0.00 0.00 26 1017.9
20260508162703 21 71 1.6 9.7 0.00 0.00 0.00 27 1017.9
20260508161815 20 71 0.0 6.4 0.00 0.00 0.00 28 1017.9
20260508160915 20 69 1.6 8.0 0.00 0.00 0.00 28 1017.9
20260508160015 19 68 1.6 6.4 0.00 0.00 0.00 29 1017.9
20260508155415 19 68 1.6 6.4 0.00 0.00 0.00 30 1017.9
20260508154515 18 68 3.2 8.0 0.00 0.00 0.00 30 1017.9
20260508153636 18 70 4.8 12.9 0.00 0.00 0.00 31 1017.9
20260508152715 17 72 3.2 11.3 0.00 0.00 0.00 31 1017.9
20260508151815 17 118 1.6 12.9 0.00 0.00 0.00 32 1017.9
20260508150915 17 105 3.2 9.7 0.00 0.00 0.00 32 1017.9
20260508150003 17 66 6.4 17.7 0.00 0.00 0.00 33 1017.9
20260508145403 17 62 3.2 9.7 0.00 0.00 0.00 34 1017.9
20260508144536 16 48 6.4 16.1 0.00 0.00 0.00 34 1017.9
20260508143603 16 50 6.4 14.5 0.00 0.00 0.00 35 1017.9
20260508142715 16 49 3.2 14.5 0.00 0.00 0.00 36 1017.9